DELTA 1 DEB, 7055

Orbit data source: Space-Track

DELTA 1 DEB, 7055 is space debris in LEO originally from a launch on Tue, 06 Nov 1973 UTC launched from the Air Force Western Test Range (AFWTR). Debris objects in space refer to the collection of defunct objects orbiting the Earth. Examples of debris include non-operational satellites, rocket bodies, and fragments generated from explosions, collisions, or faulty payload assembly.

Loading next visibility...
Identifier
7055, 1973-086AX
Orbit
LEO
Country
Flag of USUS
Related business
Manufacturer
Unknown
Mission
Spacecraft
Bus & Motor
Unknown
Mass
Unknown
Launch date (UTC)
1973-11-06 (52 years ago)
Launch vehicle
Unknown
Launch site
Air Force Western Test Range (AFWTR)
Object type
Payload
Rocket body
Debris
Shape & HBR
Unknown shape, 0.2 m
Radar Cross Section
Medium (>0.1 m² and <1 m²)

Expand to show TLE details & history
Last TLE update: 11 hours ago

TLE from 11 hours ago
0 DELTA 1 DEB
1 07055U 73086AX  25292.18804413  .00000141  00000-0  23268-2 0  9999
2 07055 102.6926  18.7028 0344356 203.5225 215.5967 11.84174895245177
Epoch: 2025-10-19T04:30Z
TLE epoch observation values (Epoch: 2025-10-19T04:30:47.012Z)
Latitude
54.8998°
Longitude
-95.50283°
Altitude
1,992.142 km
Speed
6.808 km/s
True Right ascension
00h 00m 24s
True Declination
54° 45' 42"
Sunlit
Object was in full shadow at epoch
Visualization orbit readout
Latitude
Unknown
Longitude
Unknown
Altitude
Unknown
Speed
Unknown
Apparent Right ascension
Unknown
Apparent Declination
Unknown
Sunlit
N/A
Visualization observer readout
Local Sidereal Time
10:51:21
Azimuth
Unknown
Elevation
Unknown
Doppler factor
Unknown
Orbital elements
Apogee altitude
2,030.09 km
Perigee altitude
1,470.282 km
Semi-major axis
8,128.323 km
Eccentricity
0.03444
Inclination
102.6926°
RAAN
18.7028°
Arg. of periapsis
203.5225°
True anomaly
213.37814°
Mean anomaly
215.5967°
Eccentric anomaly
214.47975°
Mean motion
2.9617 °/min
Orbital period
121.55 mins
BSTAR
0.0023268
Loading maneuver chart data...
Computing Atmospheric mass density...
Loading historical data...
Loading historical data...
Loading historical data...
Loading historical data...
Loading historical data...
Loading historical data...
Loading historical data...

Documentation

Showing up to 5 results
|